Onweer radar Meer informatie blitzortung!


Regen radar Meer informatie rain snow radar


Bezoek ook deze websites:

Template documentation
and downloads

And another site


Het weer levert geen direct gevaar op.    Er zijn geen waarschuwingen afgegeven.

Select another period ( hide this area )

Eenheden Periode Custom range Directly to
Metrisch Engels Beide
Dagelijkse Wekelijkse Maandelijkse Jaarlijkse
use both date-selectors for a custom range
previous Dag
With this date

WeatherUnderground graphs for this period ( click here )


Dagelijkse Samenvatting Zaterdag Jan 18 2020
Tijd Temp. ( °C ) Dew pt. ( °C ) Wind ( km/h ) van Windvlaag ( km/h ) Luchtdruk ( hPa ) Humid.( % ) Rainrate ( cm ) Zonneschijn ( W/m2 )
Hoog6,5 5,1 27,4 Zuiden ( 623/2168 ) 45,1 1020,2 93 0,80 160
Gemiddeld4,2 2,9 13,4 Zuiden #42/162 24,0 1017,1 91 0,90 58 #58/162
Laag3,2 2,0 -   0,0 1013,4 87 -  
Dagelijkse Tabular details for Zaterdag Jan 18 2020
Tijd Temp. ( °C ) Dew pt. ( °C ) Wind ( km/h ) van Windvlaag ( km/h ) Luchtdruk ( hPa ) Humid.( % ) Rainrate ( cm ) Zonneschijn ( W/m2 )
00:00 5,9 4,1 19,5 ZW 24,1 1013,4 88 - -
00:05 5,9 4,1 11,1 WZW 32,2 1013,4 88 - -
00:10 5,8 4,0 16,3 WZW 22,5 1013,8 88 - -
00:15 5,8 4,0 20,9 ZW 22,5 1013,8 88 - -
00:20 5,8 4,0 19,5 WZW 25,7 1013,8 88 - -
00:25 5,8 4,0 20,9 Westen 30,6 1014,1 88 - -
00:30 5,7 3,9 19,5 Westen 20,9 1014,1 88 - -
00:35 5,6 3,8 16,3 ZW 29,0 1014,1 88 - -
00:40 5,4 3,6 14,3 ZW 30,6 1014,1 88 - -
00:45 5,3 3,5 22,7 Westen 25,7 1014,4 88 - -
00:50 5,3 3,5 7,9 ZW 29,0 1014,4 88 - -
00:55 5,2 3,4 19,5 WZW 32,2 1014,4 88 - -
01:00 5,2 3,4 14,3 ZW 45,1 1014,4 88 - -
01:05 5,2 3,4 19,5 ZW 33,8 1014,8 88 - -
01:10 5,1 3,3 16,3 ZW 35,4 1014,8 88 - -
01:15 4,9 3,1 17,7 WZW 35,4 1014,8 88 - -
01:20 4,7 2,9 22,7 ZW 25,7 1014,8 88 - -
01:25 4,4 2,6 16,3 ZW 25,7 1014,8 88 - -
01:30 4,3 2,5 22,7 ZW 32,2 1014,8 88 - -
01:35 4,3 2,5 13,0 ZW 24,1 1014,8 88 - -
01:40 4,2 2,4 17,7 ZZW 30,6 1014,8 88 - -
01:45 4,3 2,5 11,1 Zuiden 25,7 1014,8 88 - -
01:50 4,4 2,4 11,1 ZZW 25,7 1015,1 87 - -
01:55 4,4 2,4 16,3 ZW 24,1 1015,1 87 - -
02:00 4,3 2,3 4,7 ZW 22,5 1015,1 87 - -
02:05 4,2 2,2 13,0 ZZW 19,3 1015,1 87 - -
02:10 4,1 2,3 9,7 Zuiden 24,1 1015,1 88 - -
02:15 3,9 2,3 11,1 ZW 19,3 1015,1 89 - -
02:20 3,8 2,2 11,1 ZW 19,3 1015,5 89 - -
02:25 3,8 2,2 20,9 ZW 20,9 1015,5 89 - -
02:30 3,8 2,2 14,3 ZZW 24,1 1015,5 89 - -
02:35 3,9 2,4 16,3 ZW 29,0 1015,5 90 - -
02:40 4,0 2,5 14,3 ZZW 27,4 1015,8 90 - -
02:45 4,1 2,6 20,9 Zuiden 27,4 1015,8 90 - -
02:50 4,0 2,5 16,3 Zuiden 25,7 1015,8 90 - -
02:55 3,9 2,4 16,3 ZW 25,7 1015,8 90 - -
03:00 3,9 2,6 22,7 ZZW 30,6 1015,8 91 - -
03:05 4,0 2,7 14,3 ZZW 22,5 1015,8 91 - -
03:10 4,0 2,7 11,1 Zuiden 24,1 1015,8 91 - -
03:15 4,0 2,7 27,4 Zuiden 27,4 1015,8 91 - -
03:20 4,0 2,7 20,9 Zuiden 30,6 1015,8 91 - -
03:25 4,0 2,7 16,3 Zuiden 20,9 1016,1 91 - -
03:30 3,9 2,6 16,3 ZZW 20,9 1016,1 91 - -
03:35 3,9 2,6 14,3 ZZO 25,7 1016,1 91 - -
03:40 4,0 2,7 16,3 Zuiden 27,4 1015,8 91 - -
03:45 4,1 2,8 17,7 Zuiden 35,4 1015,8 91 - -
03:50 4,1 2,8 16,3 ZZW 27,4 1015,8 91 - -
03:55 4,1 2,8 19,5 ZZW 33,8 1016,1 91 - -
04:00 4,1 2,8 22,7 ZW 27,4 1016,1 91 - -
04:05 4,1 2,8 11,1 ZZW 25,7 1016,1 91 - -
04:10 4,1 2,8 13,0 Zuiden 32,2 1016,1 91 - -
04:15 4,1 2,8 16,3 ZO 20,9 1016,1 91 - -
04:20 4,0 2,7 17,7 ZW 27,4 1016,1 91 - -
04:25 3,9 2,6 11,1 ZZW 24,1 1016,1 91 - -
04:30 3,9 2,6 9,7 ZZW 19,3 1016,1 91 - -
04:35 3,8 2,5 11,1 ZZO 25,7 1016,1 91 - -
04:40 3,8 2,5 9,7 Zuiden 22,5 1016,1 91 - -
04:45 3,7 2,4 13,0 Zuiden 22,5 1016,1 91 - -
04:50 3,6 2,3 13,0 ZZW 24,1 1016,1 91 - -
04:55 3,5 2,2 14,3 ZO 19,3 1016,1 91 - -
05:00 3,4 2,1 14,3 Zuiden 22,5 1016,1 91 - -
05:05 3,4 2,1 14,3 Zuiden 19,3 1016,1 91 - -
05:10 3,4 2,1 11,1 ZZO 22,5 1016,1 91 - -
05:15 3,4 2,1 17,7 Zuiden 30,6 1016,1 91 - -
05:20 3,4 2,1 9,7 ZZW 25,7 1016,1 91 - -
05:25 3,4 2,1 11,1 Zuiden 22,5 1016,1 91 - -
05:30 3,4 2,2 9,7 ZZO 22,5 1016,1 92 - -
05:35 3,4 2,2 7,9 Zuiden 19,3 1016,5 92 - -
05:40 3,4 2,2 11,1 ZZO 22,5 1016,5 92 - -
05:45 3,4 2,2 11,1 ZZW 24,1 1016,5 92 - -
05:50 3,3 2,1 7,9 Zuiden 16,1 1016,5 92 - -
05:55 3,3 2,0 9,7 ZZO 14,5 1016,5 91 - -
06:00 3,3 2,0 13,0 ZZO 17,7 1016,5 91 - -
06:05 3,3 2,1 9,7 ZZO 16,1 1016,8 92 - -
06:10 3,3 2,1 7,9 ZZO 16,1 1016,8 92 - -
06:15 3,3 2,1 6,4 ZZW 16,1 1016,8 92 - -
06:20 3,3 2,1 7,9 ZZW 19,3 1016,8 92 - -
06:25 3,2 2,0 9,7 ZZO 19,3 1016,8 92 - -
06:30 3,2 2,0 16,3 ZO 22,5 1016,8 92 - -
06:35 3,2 2,0 13,0 ZZO 20,9 1016,8 92 - -
06:40 3,2 2,0 3,2 ZZO 16,1 1016,8 92 - -
06:45 3,2 2,0 13,0 ZO 16,1 1016,8 92 - -
06:50 3,2 2,0 6,4 ZZO 17,7 1016,8 92 - -
06:55 3,2 2,0 13,0 Zuiden 16,1 1016,8 92 - -
07:00 3,3 2,1 9,7 ZW 19,3 1016,8 92 - -
07:05 3,4 2,2 13,0 ZZO 27,4 1017,2 92 - -
07:10 3,4 2,2 16,3 ZZO 30,6 1017,2 92 - -
07:15 3,6 2,4 13,0 ZZW 27,4 1017,2 92 - -
07:20 3,7 2,5 19,5 Zuiden 22,5 1017,2 92 - -
07:25 3,7 2,5 17,7 ZZO 35,4 1017,2 92 - -
07:30 3,7 2,5 17,7 Zuiden 30,6 1017,2 92 - -
07:35 3,6 2,4 14,3 ZZW 25,7 1017,2 92 - -
07:40 3,6 2,4 13,0 OZO 19,3 1017,2 92 - -
07:45 3,5 2,3 19,5 ZW 29,0 1017,2 92 - -
07:50 3,4 2,2 14,3 ZZW 29,0 1017,2 92 - -
07:55 3,4 2,2 17,7 ZZW 24,1 1017,2 92 - -
08:00 3,4 2,2 13,0 Zuiden 32,2 1017,2 92 - -
08:05 3,3 2,1 13,0 Zuiden 22,5 1017,5 92 - -
08:10 3,3 2,1 7,9 ZO 22,5 1017,5 92 - -
08:15 3,3 2,1 4,7 ZZW 20,9 1017,5 92 - -
08:20 3,3 2,1 16,3 ZZO 24,1 1017,5 92 - -
08:25 3,4 2,2 20,9 Zuiden 25,7 1017,5 92 - -
08:30 3,4 2,2 9,7 Zuiden 22,5 1017,5 92 - -
08:35 3,3 2,1 7,9 Zuiden 24,1 1017,8 92 - -
08:40 3,3 2,1 11,1 Zuiden 20,9 1017,8 92 - 5
08:45 3,3 2,1 13,0 Zuiden 20,9 1017,8 92 - 7
08:50 3,3 2,1 16,3 Zuiden 29,0 1017,8 92 - 9
08:55 3,3 2,1 14,3 ZZW 30,6 1017,8 92 - 12
09:00 3,4 2,2 24,1 ZO 27,4 1017,8 92 - 14
09:05 3,4 2,2 16,3 ZZW 32,2 1018,2 92 - 16
09:10 3,4 2,2 13,0 Zuiden 20,9 1018,2 92 - 19
09:15 3,5 2,3 19,5 ZZW 30,6 1018,2 92 - 26
09:20 3,7 2,5 17,7 Zuiden 27,4 1018,2 92 - 37
09:25 3,8 2,6 13,0 Zuiden 32,2 1018,5 92 - 44
09:30 4,0 2,8 17,7 ZW 37,0 1018,5 92 - 35
09:35 4,1 2,9 14,3 ZZW 38,6 1018,2 92 - 32
09:40 4,1 2,9 14,3 Zuiden 29,0 1018,5 92 0,30 40
09:45 4,2 3,0 19,5 Zuiden 29,0 1018,5 92 0,30 40
09:50 4,2 3,0 16,3 Zuiden 33,8 1018,5 92 0,30 62
09:55 4,3 3,1 17,7 Zuiden 32,2 1018,5 92 0,30 76
10:00 4,4 3,2 19,5 Zuiden 25,7 1018,5 92 0,30 67
10:05 4,6 3,4 20,9 ZW 32,2 1018,8 92 0,30 72
10:10 4,7 3,5 13,0 ZZW 25,7 1018,8 92 0,30 83
10:15 4,8 3,6 13,0 Zuiden 30,6 1018,8 92 0,30 93
10:20 4,9 3,7 19,5 ZZO 27,4 1018,8 92 0,30 95
10:25 4,9 3,6 17,7 ZZW 27,4 1018,8 91 0,30 111
10:30 4,9 3,6 27,4 ZZW 32,2 1018,8 91 0,30 105
10:35 5,0 3,7 14,3 ZZW 24,1 1018,8 91 0,30 44
10:40 4,9 3,6 17,7 Zuiden 33,8 1019,2 91 - 26
10:45 4,7 3,4   Kalm 16,1 1019,5 91 0,50 19
10:50 4,6 3,4 13,0 ZZW 17,7 1019,5 92 0,50 12
10:55 4,6 3,4 7,9 WZW 20,9 1019,5 92 0,50 16
11:00 4,5 3,3 13,0 ZZW 20,9 1019,5 92 0,50 26
11:05 4,6 3,4 14,3 ZZW 22,5 1019,2 92 0,80 44
11:10 4,6 3,4 9,7 ZZW 27,4 1019,5 92 0,80 44
11:15 4,7 3,7 11,1 ZW 17,7 1019,5 93 0,80 40
11:20 4,7 3,7 14,3 ZZW 19,3 1019,5 93 0,80 39
11:25 4,7 3,7 16,3 Zuiden 22,5 1019,5 93 0,80 53
11:30 4,8 3,8 16,3 ZZW 24,1 1019,5 93 0,80 70
11:35 4,9 3,9 13,0 Zuiden 22,5 1019,5 93 0,80 69
11:40 4,9 3,9 17,7 ZZW 29,0 1019,5 93 0,80 97
11:45 5,1 4,1 16,3 ZZO 25,7 1019,5 93 0,50 113
11:50 5,2 4,2 13,0 ZZW 19,3 1019,5 93 0,30 111
11:55 5,3 4,3 7,9 ZW 16,1 1019,9 93 0,30 67
12:00 5,2 4,0   Kalm 17,7 1019,9 92 0,30 54
12:05 5,3 4,1   Kalm 17,7 1019,9 92 - 58
12:10 5,3 4,1   Kalm   1019,9 92 - 49
12:15 5,2 4,0   Kalm 22,5 1019,9 92 - 90
12:20 5,2 4,0   Kalm 12,9 1019,9 92 - 90
12:25 5,3 4,1 14,3 WZW 22,5 1019,9 92 - 72
12:30 5,3 4,1 1,4 WZW 17,7 1019,9 92 - 33
12:35 5,3 4,0 6,4 ZW 19,3 1020,2 91 - 26
12:40 5,3 4,0 11,1 ZW 16,1 1019,9 91 - 40
12:45 5,3 4,0 7,9 ZW 12,9 1019,9 91 0,30 30
12:50 5,3 4,0 1,4 WZW 4,8 1019,9 91 0,30 28
12:55 5,4 4,2 3,2 ZW 8,0 1019,9 92 0,30 54
13:00 5,5 4,3   Kalm 6,4 1019,9 92 0,30 86
13:05 5,7 4,5   Kalm 9,7 1019,9 92 0,30 116
13:10 5,9 4,7   Kalm 9,7 1019,9 92 0,30 132
13:15 6,2 4,8 6,4 ZZO 14,5 1019,9 91 0,30 160
13:20 6,3 4,9 11,1 ZW 17,7 1019,9 91 0,30 114
13:25 6,5 5,1 14,3 ZW 20,9 1019,9 91 0,30 113
Dagelijkse Samenvatting Zaterdag Jan 18 2020
Tijd Temp. ( °C ) Dew pt. ( °C ) Wind ( km/h ) van Windvlaag ( km/h ) Luchtdruk ( hPa ) Humid.( % ) Rainrate ( cm ) Zonneschijn ( W/m2 )
Hoog6,5 5,1 27,4 Zuiden ( 623/2168 ) 45,1 1020,2 93 0,80 160
Gemiddeld4,2 2,9 13,4 Zuiden #42/162 24,0 1017,1 91 0,90 58 #58/162
Laag3,2 2,0 -   0,0 1013,4 87 -  
Dagelijkse Tabular details for Zaterdag Jan 18 2020
Tijd Temp. ( °C ) Dew pt. ( °C ) Wind ( km/h ) van Windvlaag ( km/h ) Luchtdruk ( hPa ) Humid.( % ) Rainrate ( cm ) Zonneschijn ( W/m2 )
00:00 5,9 4,1 19,5 ZW 24,1 1013,4 88 - -
00:05 5,9 4,1 11,1 WZW 32,2 1013,4 88 - -
00:10 5,8 4,0 16,3 WZW 22,5 1013,8 88 - -
00:15 5,8 4,0 20,9 ZW 22,5 1013,8 88 - -
00:20 5,8 4,0 19,5 WZW 25,7 1013,8 88 - -
00:25 5,8 4,0 20,9 Westen 30,6 1014,1 88 - -
00:30 5,7 3,9 19,5 Westen 20,9 1014,1 88 - -
00:35 5,6 3,8 16,3 ZW 29,0 1014,1 88 - -
00:40 5,4 3,6 14,3 ZW 30,6 1014,1 88 - -
00:45 5,3 3,5 22,7 Westen 25,7 1014,4 88 - -
00:50 5,3 3,5 7,9 ZW 29,0 1014,4 88 - -
00:55 5,2 3,4 19,5 WZW 32,2 1014,4 88 - -
01:00 5,2 3,4 14,3 ZW 45,1 1014,4 88 - -
01:05 5,2 3,4 19,5 ZW 33,8 1014,8 88 - -
01:10 5,1 3,3 16,3 ZW 35,4 1014,8 88 - -
01:15 4,9 3,1 17,7 WZW 35,4 1014,8 88 - -
01:20 4,7 2,9 22,7 ZW 25,7 1014,8 88 - -
01:25 4,4 2,6 16,3 ZW 25,7 1014,8 88 - -
01:30 4,3 2,5 22,7 ZW 32,2 1014,8 88 - -
01:35 4,3 2,5 13,0 ZW 24,1 1014,8 88 - -
01:40 4,2 2,4 17,7 ZZW 30,6 1014,8 88 - -
01:45 4,3 2,5 11,1 Zuiden 25,7 1014,8 88 - -
01:50 4,4 2,4 11,1 ZZW 25,7 1015,1 87 - -
01:55 4,4 2,4 16,3 ZW 24,1 1015,1 87 - -
02:00 4,3 2,3 4,7 ZW 22,5 1015,1 87 - -
02:05 4,2 2,2 13,0 ZZW 19,3 1015,1 87 - -
02:10 4,1 2,3 9,7 Zuiden 24,1 1015,1 88 - -
02:15 3,9 2,3 11,1 ZW 19,3 1015,1 89 - -
02:20 3,8 2,2 11,1 ZW 19,3 1015,5 89 - -
02:25 3,8 2,2 20,9 ZW 20,9 1015,5 89 - -
02:30 3,8 2,2 14,3 ZZW 24,1 1015,5 89 - -
02:35 3,9 2,4 16,3 ZW 29,0 1015,5 90 - -
02:40 4,0 2,5 14,3 ZZW 27,4 1015,8 90 - -
02:45 4,1 2,6 20,9 Zuiden 27,4 1015,8 90 - -
02:50 4,0 2,5 16,3 Zuiden 25,7 1015,8 90 - -
02:55 3,9 2,4 16,3 ZW 25,7 1015,8 90 - -
03:00 3,9 2,6 22,7 ZZW 30,6 1015,8 91 - -
03:05 4,0 2,7 14,3 ZZW 22,5 1015,8 91 - -
03:10 4,0 2,7 11,1 Zuiden 24,1 1015,8 91 - -
03:15 4,0 2,7 27,4 Zuiden 27,4 1015,8 91 - -
03:20 4,0 2,7 20,9 Zuiden 30,6 1015,8 91 - -
03:25 4,0 2,7 16,3 Zuiden 20,9 1016,1 91 - -
03:30 3,9 2,6 16,3 ZZW 20,9 1016,1 91 - -
03:35 3,9 2,6 14,3 ZZO 25,7 1016,1 91 - -
03:40 4,0 2,7 16,3 Zuiden 27,4 1015,8 91 - -
03:45 4,1 2,8 17,7 Zuiden 35,4 1015,8 91 - -
03:50 4,1 2,8 16,3 ZZW 27,4 1015,8 91 - -
03:55 4,1 2,8 19,5 ZZW 33,8 1016,1 91 - -
04:00 4,1 2,8 22,7 ZW 27,4 1016,1 91 - -
04:05 4,1 2,8 11,1 ZZW 25,7 1016,1 91 - -
04:10 4,1 2,8 13,0 Zuiden 32,2 1016,1 91 - -
04:15 4,1 2,8 16,3 ZO 20,9 1016,1 91 - -
04:20 4,0 2,7 17,7 ZW 27,4 1016,1 91 - -
04:25 3,9 2,6 11,1 ZZW 24,1 1016,1 91 - -
04:30 3,9 2,6 9,7 ZZW 19,3 1016,1 91 - -
04:35 3,8 2,5 11,1 ZZO 25,7 1016,1 91 - -
04:40 3,8 2,5 9,7 Zuiden 22,5 1016,1 91 - -
04:45 3,7 2,4 13,0 Zuiden 22,5 1016,1 91 - -
04:50 3,6 2,3 13,0 ZZW 24,1 1016,1 91 - -
04:55 3,5 2,2 14,3 ZO 19,3 1016,1 91 - -
05:00 3,4 2,1 14,3 Zuiden 22,5 1016,1 91 - -
05:05 3,4 2,1 14,3 Zuiden 19,3 1016,1 91 - -
05:10 3,4 2,1 11,1 ZZO 22,5 1016,1 91 - -
05:15 3,4 2,1 17,7 Zuiden 30,6 1016,1 91 - -
05:20 3,4 2,1 9,7 ZZW 25,7 1016,1 91 - -
05:25 3,4 2,1 11,1 Zuiden 22,5 1016,1 91 - -
05:30 3,4 2,2 9,7 ZZO 22,5 1016,1 92 - -
05:35 3,4 2,2 7,9 Zuiden 19,3 1016,5 92 - -
05:40 3,4 2,2 11,1 ZZO 22,5 1016,5 92 - -
05:45 3,4 2,2 11,1 ZZW 24,1 1016,5 92 - -
05:50 3,3 2,1 7,9 Zuiden 16,1 1016,5 92 - -
05:55 3,3 2,0 9,7 ZZO 14,5 1016,5 91 - -
06:00 3,3 2,0 13,0 ZZO 17,7 1016,5 91 - -
06:05 3,3 2,1 9,7 ZZO 16,1 1016,8 92 - -
06:10 3,3 2,1 7,9 ZZO 16,1 1016,8 92 - -
06:15 3,3 2,1 6,4 ZZW 16,1 1016,8 92 - -
06:20 3,3 2,1 7,9 ZZW 19,3 1016,8 92 - -
06:25 3,2 2,0 9,7 ZZO 19,3 1016,8 92 - -
06:30 3,2 2,0 16,3 ZO 22,5 1016,8 92 - -
06:35 3,2 2,0 13,0 ZZO 20,9 1016,8 92 - -
06:40 3,2 2,0 3,2 ZZO 16,1 1016,8 92 - -
06:45 3,2 2,0 13,0 ZO 16,1 1016,8 92 - -
06:50 3,2 2,0 6,4 ZZO 17,7 1016,8 92 - -
06:55 3,2 2,0 13,0 Zuiden 16,1 1016,8 92 - -
07:00 3,3 2,1 9,7 ZW 19,3 1016,8 92 - -
07:05 3,4 2,2 13,0 ZZO 27,4 1017,2 92 - -
07:10 3,4 2,2 16,3 ZZO 30,6 1017,2 92 - -
07:15 3,6 2,4 13,0 ZZW 27,4 1017,2 92 - -
07:20 3,7 2,5 19,5 Zuiden 22,5 1017,2 92 - -
07:25 3,7 2,5 17,7 ZZO 35,4 1017,2 92 - -
07:30 3,7 2,5 17,7 Zuiden 30,6 1017,2 92 - -
07:35 3,6 2,4 14,3 ZZW 25,7 1017,2 92 - -
07:40 3,6 2,4 13,0 OZO 19,3 1017,2 92 - -
07:45 3,5 2,3 19,5 ZW 29,0 1017,2 92 - -
07:50 3,4 2,2 14,3 ZZW 29,0 1017,2 92 - -
07:55 3,4 2,2 17,7 ZZW 24,1 1017,2 92 - -
08:00 3,4 2,2 13,0 Zuiden 32,2 1017,2 92 - -
08:05 3,3 2,1 13,0 Zuiden 22,5 1017,5 92 - -
08:10 3,3 2,1 7,9 ZO 22,5 1017,5 92 - -
08:15 3,3 2,1 4,7 ZZW 20,9 1017,5 92 - -
08:20 3,3 2,1 16,3 ZZO 24,1 1017,5 92 - -
08:25 3,4 2,2 20,9 Zuiden 25,7 1017,5 92 - -
08:30 3,4 2,2 9,7 Zuiden 22,5 1017,5 92 - -
08:35 3,3 2,1 7,9 Zuiden 24,1 1017,8 92 - -
08:40 3,3 2,1 11,1 Zuiden 20,9 1017,8 92 - 5
08:45 3,3 2,1 13,0 Zuiden 20,9 1017,8 92 - 7
08:50 3,3 2,1 16,3 Zuiden 29,0 1017,8 92 - 9
08:55 3,3 2,1 14,3 ZZW 30,6 1017,8 92 - 12
09:00 3,4 2,2 24,1 ZO 27,4 1017,8 92 - 14
09:05 3,4 2,2 16,3 ZZW 32,2 1018,2 92 - 16
09:10 3,4 2,2 13,0 Zuiden 20,9 1018,2 92 - 19
09:15 3,5 2,3 19,5 ZZW 30,6 1018,2 92 - 26
09:20 3,7 2,5 17,7 Zuiden 27,4 1018,2 92 - 37
09:25 3,8 2,6 13,0 Zuiden 32,2 1018,5 92 - 44
09:30 4,0 2,8 17,7 ZW 37,0 1018,5 92 - 35
09:35 4,1 2,9 14,3 ZZW 38,6 1018,2 92 - 32
09:40 4,1 2,9 14,3 Zuiden 29,0 1018,5 92 0,30 40
09:45 4,2 3,0 19,5 Zuiden 29,0 1018,5 92 0,30 40
09:50 4,2 3,0 16,3 Zuiden 33,8 1018,5 92 0,30 62
09:55 4,3 3,1 17,7 Zuiden 32,2 1018,5 92 0,30 76
10:00 4,4 3,2 19,5 Zuiden 25,7 1018,5 92 0,30 67
10:05 4,6 3,4 20,9 ZW 32,2 1018,8 92 0,30 72
10:10 4,7 3,5 13,0 ZZW 25,7 1018,8 92 0,30 83
10:15 4,8 3,6 13,0 Zuiden 30,6 1018,8 92 0,30 93
10:20 4,9 3,7 19,5 ZZO 27,4 1018,8 92 0,30 95
10:25 4,9 3,6 17,7 ZZW 27,4 1018,8 91 0,30 111
10:30 4,9 3,6 27,4 ZZW 32,2 1018,8 91 0,30 105
10:35 5,0 3,7 14,3 ZZW 24,1 1018,8 91 0,30 44
10:40 4,9 3,6 17,7 Zuiden 33,8 1019,2 91 - 26
10:45 4,7 3,4   Kalm 16,1 1019,5 91 0,50 19
10:50 4,6 3,4 13,0 ZZW 17,7 1019,5 92 0,50 12
10:55 4,6 3,4 7,9 WZW 20,9 1019,5 92 0,50 16
11:00 4,5 3,3 13,0 ZZW 20,9 1019,5 92 0,50 26
11:05 4,6 3,4 14,3 ZZW 22,5 1019,2 92 0,80 44
11:10 4,6 3,4 9,7 ZZW 27,4 1019,5 92 0,80 44
11:15 4,7 3,7 11,1 ZW 17,7 1019,5 93 0,80 40
11:20 4,7 3,7 14,3 ZZW 19,3 1019,5 93 0,80 39
11:25 4,7 3,7 16,3 Zuiden 22,5 1019,5 93 0,80 53
11:30 4,8 3,8 16,3 ZZW 24,1 1019,5 93 0,80 70
11:35 4,9 3,9 13,0 Zuiden 22,5 1019,5 93 0,80 69
11:40 4,9 3,9 17,7 ZZW 29,0 1019,5 93 0,80 97
11:45 5,1 4,1 16,3 ZZO 25,7 1019,5 93 0,50 113
11:50 5,2 4,2 13,0 ZZW 19,3 1019,5 93 0,30 111
11:55 5,3 4,3 7,9 ZW 16,1 1019,9 93 0,30 67
12:00 5,2 4,0   Kalm 17,7 1019,9 92 0,30 54
12:05 5,3 4,1   Kalm 17,7 1019,9 92 - 58
12:10 5,3 4,1   Kalm   1019,9 92 - 49
12:15 5,2 4,0   Kalm 22,5 1019,9 92 - 90
12:20 5,2 4,0   Kalm 12,9 1019,9 92 - 90
12:25 5,3 4,1 14,3 WZW 22,5 1019,9 92 - 72
12:30 5,3 4,1 1,4 WZW 17,7 1019,9 92 - 33
12:35 5,3 4,0 6,4 ZW 19,3 1020,2 91 - 26
12:40 5,3 4,0 11,1 ZW 16,1 1019,9 91 - 40
12:45 5,3 4,0 7,9 ZW 12,9 1019,9 91 0,30 30
12:50 5,3 4,0 1,4 WZW 4,8 1019,9 91 0,30 28
12:55 5,4 4,2 3,2 ZW 8,0 1019,9 92 0,30 54
13:00 5,5 4,3   Kalm 6,4 1019,9 92 0,30 86
13:05 5,7 4,5   Kalm 9,7 1019,9 92 0,30 116
13:10 5,9 4,7   Kalm 9,7 1019,9 92 0,30 132
13:15 6,2 4,8 6,4 ZZO 14,5 1019,9 91 0,30 160
13:20 6,3 4,9 11,1 ZW 17,7 1019,9 91 0,30 114
13:25 6,5 5,1 14,3 ZW 20,9 1019,9 91 0,30 113

Download your copy of this data-set  here

Our weather-data as stored at Weather Underground. Script ontwikkeld door Jim McMurry. Aangepast voor de template door Leuven-Template.eu

U vindt ons ook hier:

UK Metoffice

Weather Underground